DECAYED

NOAA 17 DEB, 48736 (Decayed)

Orbit data source: Space-Track

NOAA 17 DEB, 48736 was space debris in SSO originally from a launch on Mon, 24 Jun 2002 UTC launched from the Air Force Western Test Range (AFWTR). Debris objects in space refer to the collection of defunct objects orbiting the Earth. Examples of debris include non-operational satellites, rocket bodies, and fragments generated from explosions, collisions, or faulty payload assembly.

Not visible in the next 10 days
Identifier
48736, 2002-032BV
Orbit
Decayed
Country
Flag of USUS
Related business
Manufacturer
Unknown
Mission
Decayed spacecraft
Bus & Motor
Unknown
Mass
Unknown
Launch date (UTC)
2002-06-24 (24 years ago)
Launch vehicle
Unknown
Launch site
Air Force Western Test Range (AFWTR)
Object type
Payload
Rocket body
Debris
Shape & HBR
Unknown shape, 0.1 m
Radar Cross Section
Medium (>0.1 m² and <1 m²)

Expand to show TLE details & history
Last TLE update: 7 months ago

TLE from 7 months ago
0 NOAA 17 DEB
1 48736U 02032BV  25327.68761217  .01380136  00000-0  10139-1 0  9999
2 48736  98.7116  34.9872 0007350 304.3330  55.7232 15.70176011249048
Epoch: 2025-11-23T16:30Z
TLE epoch observation values (Epoch: 2025-11-23T16:30:09.691Z)
Latitude
-0.00003°
Longitude
84.54847°
Altitude
358.723 km
Speed
7.696 km/s
True Right ascension
02h 19m 56s
True Declination
0° 00' 00"
Sunlit
Object was in full shadow at epoch
Visualization orbit readout
Latitude
Unknown
Longitude
Unknown
Altitude
Unknown
Speed
Unknown
Apparent Right ascension
Unknown
Apparent Declination
Unknown
Sunlit
N/A
Visualization observer readout
Local Sidereal Time
21:36:52
Azimuth
Unknown
Elevation
Unknown
Doppler factor
Unknown
Orbital elements
Apogee altitude
360.304 km
Perigee altitude
350.406 km
Semi-major axis
6,733.492 km
Eccentricity
0.00074
Inclination
98.7116°
RAAN
34.9872°
Arg. of periapsis
304.333°
True anomaly
55.79283°
Mean anomaly
55.7232°
Eccentric anomaly
55.75801°
Mean motion
3.9281 °/min
Orbital period
91.65 mins
BSTAR
0.010139
Loading maneuver chart data...
Computing Atmospheric mass density...

Documentation

Showing up to 5 results
|